Tracking 18624 objects as of 26-April-2017
HD Live streaming from Space Station
objects crossing your sky now

COSMOS 1974

Track COSMOS 1974 now!
COSMOS 1974 is classified as:


NORAD ID: 19554
Int'l Code: 1988-092A
Perigee: 5,747.0 km
Apogee: 34,615.0 km
Inclination: 69.8 °
Period: 717.6 minutes
Semi major axis: 26551 km
RCS: 16.1296 m2 (large)
Launch date: October 3, 1988
Source: Commonwealth of Independent States (former USSR) (CIS)
Launch site: PLESETSK MISSILE AND SPACE COMPLEX (PKMTR)
Your satellite tracking list
Your tracking list is empty





NASA's NSSDC Master Catalog

Two Line Element Set (TLE):
1 19554U 88092A   17114.65724351 -.00000589 +00000-0 +00000-0 0  9991
2 19554 069.8136 319.3194 5436137 149.9276 126.6677 02.00658380209138
Source of the keplerian elements: AFSPC